User: anonymous   Login
Location: Unspecified
(0.0000°N, 0.0000°E)
Time: 20:14:41
(UTC+00:00)
Language:

TABLETSAT AURORA - Orbit

View from above orbital plane
View from above orbital plane
View from above satellite
View from above satellite

Ground track
Ground track

The orbit data is extracted from the following two-line orbital elements,

1 40017U 14033H   19341.41998085  .00000726  00000-0  74541-4 0  9995
2 40017  98.0026 283.2253 0022306 218.5258 141.4361 14.93437638297767
Epoch (UTC): 07 December 2019 10:04:46
Eccentricity: 0.0022306
inclination: 98.0026°
perigee height: 571 km
apogee height: 603 km
right ascension of ascending node: 283.2253°
argument of perigee: 218.5258°
revolutions per day: 14.93437638
mean anomaly at epoch: 141.4361°
orbit number at epoch: 29776

The dashed part of the orbit path shows where the satellite is in the earth's shadow,  

DLR